[[{"header":{"parameterUnit":"m.s-1","parameterCategory":1,"la1":30.2991,"la2":30.254,"lo1":-89.0895,"lo2":-89.0444,"dy":0.0017,"dx":0.0017,"nx":28,"ny":28,"refTime":"2023-08-28T09:00:00:Z","depth":0,"parameterNumber":2,"parameterNumberName":"U-component_of_WINDS"},"data":[0,0,0,0,0,0,0,0,0,0,0,0,0,0,0,0,0,0,0,0,0,0,0,0,0,0,0,0,0,0,0,0,0,0,0,0,0,0,0,0,0,0,0,0,0,0,0,0,0,0,0,0,0,0,0,0,0,0,0.2384,0.2385,0,0.2477,0.2479,0.248,0.2449,0.2447,0.2445,0.2443,0.2546,0.255,0.2555,0,0,0,0,0,0,0,0,0,0,0,0,0,0.2186,0.219,0.2384,0.2385,0.2386,0.2477,0.2479,0.248,0.2449,0.2447,0.2444,0.2442,0.2544,0.2549,0.2555,0,0,0,0,0,0,0,0,0,0,0,0,0,0.2275,0.2191,0.2383,0.2382,0.2382,0.2477,0.2479,0.248,0.245,0.2447,0.2444,0.2441,0.2542,0.2549,0.2556,0.266,0,0,0.2577,0.258,0,0,0,0,0,0,0,0,0.227,0.2283,0.2381,0.2382,0.2383,0.2448,0.2446,0.2541,0.2451,0.2424,0.2443,0.2439,0.2516,0.2525,0.2549,0.2665,0.2669,0.2578,0.2582,0.2585,0.2587,0,0,0,0,0,0,0,0.2264,0.2278,0.2421,0.2382,0.2384,0.2379,0.2388,0.2464,0.2487,0.2427,0.2424,0.2436,0.2516,0.2543,0.2552,0.2671,0.2577,0.2584,0.2588,0.2591,0.288,0.2884,0,0,0,0,0,0,0.2256,0.2273,0.2418,0.2424,0.2318,0.2385,0.2395,0.243,0.2485,0.2491,0.2438,0.2434,0.2532,0.2544,0.2555,0.2683,0.2585,0.2591,0.2595,0.2877,0.2881,0.2885,0,0,0,0,0,0,0.2252,0.2269,0.2414,0.2348,0.2366,0.2391,0.2431,0.2434,0.246,0.2494,0.2499,0.2461,0.253,0.2545,0.2635,0.2687,0.2594,0.2601,0.2873,0.2878,0.2883,0.2939,0,0,0,0,0,0,0.2247,0.2268,0.2306,0.2349,0.237,0.249,0.2434,0.2438,0.2472,0.2467,0.2517,0.2522,0.2529,0.2624,0.2641,0.2694,0.2606,0.2868,0.2875,0.2881,0.2933,0.2946,0.2957,0,0,0,0,0,0.224,0.2318,0.2308,0.2325,0.2417,0.2493,0.2505,0.2509,0.2476,0.2516,0.2538,0.2521,0.2678,0.2634,0.2653,0.2709,0.2865,0.2873,0.2881,0.2928,0.2943,0.2957,0,0,0,0,0,0,0.2282,0.2324,0.2313,0.2407,0.2447,0.2487,0.2537,0.2525,0.2576,0.257,0.2576,0.2587,0.268,0.2703,0.2653,0.2814,0.2767,0.2779,0.2796,0.2811,0.2823,0.2816,0.2612,0,0,0,0,0,0.2302,0.2358,0.2392,0.2473,0.2493,0.2512,0.2545,0.2545,0.2587,0.2604,0.2632,0.2675,0.2735,0.2774,0.283,0.2936,0.2948,0.2984,0.2996,0.3005,0.3017,0.3078,0.3095,0.2911,0.2911,0.2911,0,0,0.2345,0.2375,0.241,0.2482,0.2512,0.2573,0.2526,0.2591,0.2637,0.2614,0.27,0.2723,0.2772,0.2871,0.2916,0.2893,0.307,0.3016,0.3023,0.3029,0.3088,0.3105,0.3121,0.2916,0.2915,0.2914,0,0,0.2454,0.2481,0.2552,0.2584,0.263,0.2642,0.266,0.2703,0.2717,0.2803,0.2788,0.2844,0.2945,0.2981,0.3013,0.3139,0.3126,0.3157,0.3221,0.328,0.3295,0.3308,0.3356,0.3373,0.3168,0.3168,0.3168,0,0.2502,0.259,0.2591,0.2658,0.2692,0.2673,0.2747,0.2778,0.2842,0.2867,0.284,0.2969,0.3,0.3108,0.3139,0.3165,0.3187,0.3152,0.3292,0.3305,0.3318,0.3364,0.3381,0.3172,0.3171,0.3171,0.317,0,0.2648,0.271,0.2762,0.2823,0.2863,0.2933,0.2948,0.2988,0.2986,0.3002,0.3093,0.3129,0.3194,0.322,0.3218,0.333,0.3315,0.329,0.3243,0.3339,0.3382,0.34,0.3177,0.3176,0.3174,0.3174,0,0,0.2787,0.2848,0.2867,0.2896,0.2946,0.2996,0.3067,0.3129,0.3165,0.321,0.3272,0.3359,0.3338,0.3374,0.3376,0.3428,0.353,0.3398,0.3399,0.3424,0.3659,0.3679,0.3699,0.3521,0.3524,0.3527,0.3656,0,0.2902,0.3025,0.3029,0.3143,0.3202,0.3186,0.3249,0.3288,0.3306,0.3361,0.3382,0.3444,0.3409,0.3432,0.3482,0.3507,0.3578,0.3497,0.3583,0.3586,0.3573,0.3722,0.3742,0.3862,0.3673,0.3676,0.3678,0,0.3053,0.3102,0.3221,0.3266,0.3291,0.3347,0.3406,0.3457,0.3504,0.3513,0.3555,0.355,0.3627,0.3576,0.3683,0.3629,0.3664,0.3682,0.3687,0.3697,0.3639,0.3739,0.39,0.392,0.3704,0.3702,0.37,0,0.3146,0.3242,0.3326,0.3351,0.3404,0.3445,0.347,0.3512,0.355,0.3603,0.3628,0.3689,0.3723,0.3772,0.3786,0.3746,0.3895,0.3843,0.3908,0.3908,0.3941,0.3939,0.4114,0.396,0.3959,0.3959,0.3959,0,0.3276,0.3351,0.3369,0.3421,0.3506,0.3511,0.3595,0.3617,0.3656,0.3715,0.3705,0.3761,0.3774,0.3833,0.3845,0.3934,0.3949,0.3962,0.3964,0.3964,0.3963,0.3989,0.3982,0.3964,0.3963,0.3962,0.3961,0,0.3395,0.3409,0.3501,0.3545,0.3557,0.3618,0.3657,0.3709,0.3725,0.38,0.3818,0.3846,0.3915,0.3933,0.4017,0.4025,0.4131,0.4125,0.4115,0.4116,0.418,0.4175,0.438,0.4408,0.4233,0.4234,0.4236,0,0.3478,0.3535,0.3584,0.3622,0.3649,0.3709,0.3748,0.3757,0.3798,0.3856,0.3902,0.397,0.4026,0.4139,0.4168,0.4233,0.4229,0.4297,0.4239,0.4238,0.4234,0.4232,0.4239,0.4308,0.431,0.4312,0.4313,0,0.3625,0.363,0.3685,0.3744,0.379,0.3837,0.3883,0.3915,0.393,0.3978,0.4048,0.4091,0.4177,0.4246,0.4312,0.434,0.4331,0.4331,0.4349,0.4351,0.4344,0.4352,0.4148,0.4326,0.4325,0.4324,0.4323,0.4323,0.373,0.3782,0.3825,0.3888,0.3923,0.3966,0.4017,0.4041,0.4099,0.4168,0.417,0.4248,0.4296,0.4383,0.4416,0.4479,0.4459,0.4485,0.4492,0.45,0.4507,0.4332,0.449,0.449,0.449,0.4489,0.4489,0,0.388,0.3907,0.3965,0.4028,0.4079,0.4063,0.4113,0.4157,0.4225,0.4269,0.4324,0.4407,0.4475,0.4509,0.4577,0.4622,0.4619,0.4639,0.4638,0.4645,0.4519,0.4497,0.464,0.464,0.464,0.464,0.464,0.464,0.3963,0.405,0.4061,0.4166,0.4193,0.4268,0.4298,0.434,0.4375,0.4468,0.4523,0.4545,0.4587,0.4658,0.4721,0.473,0.4757,0.478,0.4787,0.4669,0.4654,0.4639,0.4619,0.4785,0.4785,0.4908,0.4909,0.491]},{"header":{"parameterUnit":"m.s-1","parameterCategory":1,"la1":30.2991,"la2":30.254,"lo1":-89.0895,"lo2":-89.0444,"dy":0.0017,"dx":0.0017,"nx":28,"ny":28,"refTime":"2023-08-28T09:00:00:Z","depth":0,"parameterNumber":3,"parameterNumberName":"V-component_of_WINDS"},"data":[0,0,0,0,0,0,0,0,0,0,0,0,0,0,0,0,0,0,0,0,0,0,0,0,0,0,0,0,0,0,0,0,0,0,0,0,0,0,0,0,0,0,0,0,0,0,0,0,0,0,0,0,0,0,0,0,0,0,-0.7328,-0.7326,0,-0.7142,-0.714,-0.7138,-0.7104,-0.7106,-0.7108,-0.7109,-0.691,-0.6904,-0.6897,0,0,0,0,0,0,0,0,0,0,0,0,0,-0.7645,-0.7639,-0.7328,-0.7326,-0.7324,-0.7143,-0.714,-0.7137,-0.7104,-0.7106,-0.7108,-0.711,-0.6913,-0.6905,-0.6897,0,0,0,0,0,0,0,0,0,0,0,0,0,-0.7488,-0.7637,-0.7329,-0.7285,-0.728,-0.7143,-0.714,-0.7137,-0.7104,-0.7106,-0.7108,-0.7111,-0.6915,-0.6906,-0.6896,-0.6787,0,0,-0.6865,-0.686,0,0,0,0,0,0,0,0,-0.7497,-0.7476,-0.7294,-0.7288,-0.7281,-0.7149,-0.7179,-0.7019,-0.7103,-0.717,-0.7109,-0.7112,-0.6987,-0.6972,-0.6931,-0.6777,-0.6769,-0.6864,-0.6858,-0.6853,-0.685,0,0,0,0,0,0,0,-0.7508,-0.7484,-0.7254,-0.7291,-0.7284,-0.7272,-0.7252,-0.7148,-0.7068,-0.7165,-0.7162,-0.7141,-0.6984,-0.6941,-0.6926,-0.6766,-0.6864,-0.6855,-0.6849,-0.6845,-0.6508,-0.6506,0,0,0,0,0,0,-0.7527,-0.7493,-0.726,-0.7249,-0.7397,-0.7264,-0.7242,-0.7189,-0.7069,-0.7053,-0.7139,-0.714,-0.6957,-0.6938,-0.6919,-0.678,-0.6853,-0.6844,-0.6838,-0.6511,-0.6508,-0.6505,0,0,0,0,0,0,-0.7534,-0.7507,-0.7268,-0.737,-0.7339,-0.7257,-0.7197,-0.7184,-0.7141,-0.705,-0.7034,-0.711,-0.6958,-0.6933,-0.6819,-0.6773,-0.6839,-0.683,-0.6515,-0.651,-0.6506,-0.6504,0,0,0,0,0,0,-0.7544,-0.751,-0.747,-0.737,-0.7334,-0.7174,-0.7194,-0.7179,-0.7125,-0.7124,-0.7018,-0.7003,-0.6958,-0.6835,-0.6809,-0.676,-0.6822,-0.6518,-0.6513,-0.6507,-0.6508,-0.65,-0.6494,0,0,0,0,0,-0.7555,-0.7476,-0.7468,-0.744,-0.7282,-0.7171,-0.715,-0.7103,-0.7121,-0.7078,-0.7019,-0.7006,-0.6783,-0.6823,-0.6794,-0.6742,-0.6521,-0.6514,-0.6508,-0.6511,-0.6502,-0.6494,0,0,0,0,0,0,-0.757,-0.7462,-0.7452,-0.7339,-0.7265,-0.7166,-0.7111,-0.7095,-0.7012,-0.7015,-0.6957,-0.6933,-0.6821,-0.677,-0.6817,-0.6628,-0.6653,-0.664,-0.6665,-0.6656,-0.6649,-0.6662,-0.6814,0,0,0,0,0,-0.7561,-0.7483,-0.7391,-0.73,-0.7263,-0.7194,-0.7144,-0.7113,-0.7033,-0.7001,-0.6934,-0.6854,-0.6765,-0.6708,-0.6622,-0.6501,-0.6475,-0.6451,-0.6444,-0.6438,-0.6427,-0.6356,-0.6342,-0.6483,-0.6483,-0.6483,0,0,-0.754,-0.7471,-0.7425,-0.7301,-0.724,-0.7157,-0.7167,-0.708,-0.7016,-0.6987,-0.6875,-0.6822,-0.6729,-0.6611,-0.6555,-0.6565,-0.6383,-0.643,-0.6427,-0.6418,-0.6348,-0.6334,-0.6322,-0.6479,-0.648,-0.648,0,0,-0.7458,-0.74,-0.7316,-0.7255,-0.7163,-0.7117,-0.7097,-0.7,-0.6965,-0.6852,-0.6828,-0.675,-0.66,-0.6533,-0.648,-0.6372,-0.6355,-0.6345,-0.6307,-0.6238,-0.6227,-0.6217,-0.6174,-0.616,-0.6335,-0.6335,-0.6335,0,-0.7443,-0.7319,-0.7274,-0.7187,-0.7131,-0.7103,-0.7015,-0.6957,-0.6841,-0.6802,-0.6815,-0.6625,-0.656,-0.6424,-0.6397,-0.6356,-0.6328,-0.6356,-0.6233,-0.6222,-0.6212,-0.617,-0.6155,-0.6334,-0.6334,-0.6334,-0.6334,0,-0.7303,-0.7217,-0.716,-0.705,-0.6988,-0.6901,-0.6839,-0.6782,-0.6757,-0.6708,-0.6591,-0.6513,-0.6409,-0.6375,-0.6349,-0.6234,-0.6242,-0.6245,-0.6268,-0.6198,-0.6158,-0.6142,-0.6333,-0.6333,-0.6333,-0.6334,0,0,-0.7224,-0.7091,-0.707,-0.7019,-0.6915,-0.6846,-0.6756,-0.6657,-0.6607,-0.6527,-0.6447,-0.6321,-0.6322,-0.6261,-0.6227,-0.6168,-0.6082,-0.6177,-0.6174,-0.6159,-0.5945,-0.5941,-0.5924,-0.6072,-0.6069,-0.6066,-0.5951,0,-0.7128,-0.6969,-0.6925,-0.6789,-0.6707,-0.6679,-0.66,-0.6525,-0.6477,-0.6398,-0.6344,-0.6253,-0.6264,-0.6227,-0.6167,-0.6105,-0.6037,-0.6113,-0.5992,-0.5989,-0.6014,-0.5904,-0.59,-0.5796,-0.5936,-0.5933,-0.5931,0,-0.6994,-0.6913,-0.677,-0.6674,-0.6638,-0.6569,-0.6472,-0.6398,-0.6312,-0.6281,-0.6213,-0.6184,-0.6085,-0.6116,-0.5977,-0.6029,-0.5977,-0.5939,-0.5934,-0.5918,-0.5954,-0.5881,-0.5762,-0.5745,-0.5907,-0.5909,-0.5911,0,-0.6946,-0.6802,-0.6697,-0.6654,-0.6541,-0.6492,-0.6442,-0.6359,-0.6301,-0.6216,-0.6177,-0.6081,-0.6027,-0.5952,-0.5896,-0.5925,-0.576,-0.5787,-0.5728,-0.5729,-0.5692,-0.5694,-0.5559,-0.5664,-0.5665,-0.5665,-0.5665,0,-0.6841,-0.6754,-0.6674,-0.6609,-0.6509,-0.6457,-0.6358,-0.6307,-0.6233,-0.6154,-0.6124,-0.605,-0.5983,-0.5899,-0.5856,-0.5744,-0.5721,-0.569,-0.5679,-0.5691,-0.5694,-0.5653,-0.5658,-0.5661,-0.5662,-0.5662,-0.5663,0,-0.677,-0.6714,-0.6597,-0.65,-0.6473,-0.6403,-0.6318,-0.6252,-0.6203,-0.6104,-0.6077,-0.5999,-0.5899,-0.5837,-0.571,-0.568,-0.5556,-0.5549,-0.5586,-0.558,-0.5522,-0.5527,-0.5353,-0.5326,-0.5453,-0.5452,-0.5451,0,-0.6706,-0.6638,-0.6533,-0.648,-0.643,-0.6344,-0.6285,-0.6231,-0.617,-0.6066,-0.6011,-0.591,-0.5825,-0.5666,-0.5595,-0.5497,-0.5485,-0.543,-0.5469,-0.5483,-0.5479,-0.5483,-0.5474,-0.5423,-0.5422,-0.5421,-0.542,0,-0.6595,-0.657,-0.6488,-0.6394,-0.6325,-0.6249,-0.6172,-0.6129,-0.6062,-0.5994,-0.5893,-0.5827,-0.5697,-0.5595,-0.549,-0.5435,-0.5414,-0.5409,-0.5389,-0.5399,-0.5422,-0.5405,-0.5564,-0.5412,-0.5413,-0.5414,-0.5414,-0.5414,-0.6522,-0.6459,-0.6375,-0.6284,-0.6221,-0.615,-0.6082,-0.6025,-0.594,-0.5831,-0.5804,-0.5696,-0.5609,-0.5466,-0.5409,-0.5321,-0.5328,-0.5301,-0.5293,-0.5286,-0.5283,-0.5439,-0.5302,-0.5302,-0.5302,-0.5302,-0.5302,0,-0.6406,-0.6351,-0.6268,-0.6162,-0.6089,-0.608,-0.5994,-0.5932,-0.5839,-0.576,-0.5678,-0.5559,-0.5459,-0.5382,-0.5278,-0.5223,-0.5211,-0.5197,-0.5199,-0.5185,-0.5284,-0.531,-0.5209,-0.5209,-0.5209,-0.5209,-0.5209,-0.5209,-0.6337,-0.6229,-0.6195,-0.6054,-0.5998,-0.5894,-0.5845,-0.5778,-0.5715,-0.5584,-0.5502,-0.5453,-0.5373,-0.5264,-0.5171,-0.515,-0.5112,-0.5099,-0.5076,-0.5169,-0.5179,-0.5189,-0.5212,-0.5092,-0.5092,-0.4984,-0.4983,-0.4983]}]]